TimePST,TemperatureF,Dew PointF,Humidity,Sea Level PressureIn,VisibilityMPH,Wind Direction,Wind SpeedMPH,Gust SpeedMPH,PrecipitationIn,Events,Conditions,WindDirDegrees,DateUTC
12:33 AM,48.2,44.6,87,30.33,8.0,SE,4.6,-,0.01,Rain,Light Rain,130,2013-11-30 08:33:00
12:53 AM,48.0,44.1,86,30.33,10.0,SE,5.8,-,0.02,Rain,Light Rain,140,2013-11-30 08:53:00
1:31 AM,46.4,42.8,87,30.33,10.0,SE,9.2,-,0.00,,Mostly Cloudy,140,2013-11-30 09:31:00
1:41 AM,46.4,42.8,87,30.34,10.0,SE,8.1,-,0.00,,Mostly Cloudy,130,2013-11-30 09:41:00
1:53 AM,46.0,42.1,86,30.34,10.0,SE,9.2,-,0.00,,Mostly Cloudy,140,2013-11-30 09:53:00
2:53 AM,45.0,42.1,90,30.33,10.0,SSE,6.9,-,N/A,,Partly Cloudy,150,2013-11-30 10:53:00
3:53 AM,46.9,42.1,83,30.33,10.0,SSE,8.1,-,N/A,,Mostly Cloudy,160,2013-11-30 11:53:00
4:53 AM,45.0,41.0,86,30.32,10.0,SE,6.9,-,N/A,,Mostly Cloudy,140,2013-11-30 12:53:00
5:53 AM,45.0,41.0,86,30.32,10.0,SSE,9.2,-,N/A,,Overcast,150,2013-11-30 13:53:00
6:17 AM,46.4,42.8,87,30.32,10.0,ESE,5.8,-,N/A,,Overcast,120,2013-11-30 14:17:00
6:53 AM,46.9,43.0,86,30.32,10.0,SSE,6.9,-,N/A,,Overcast,150,2013-11-30 14:53:00
7:53 AM,46.0,42.1,86,30.32,10.0,SE,8.1,-,N/A,,Overcast,140,2013-11-30 15:53:00
8:53 AM,48.0,43.0,83,30.32,10.0,SE,8.1,-,N/A,,Overcast,140,2013-11-30 16:53:00
9:53 AM,50.0,43.0,77,30.32,10.0,SE,9.2,-,N/A,,Overcast,140,2013-11-30 17:53:00
10:53 AM,50.0,43.0,77,30.32,10.0,SSE,5.8,-,N/A,,Overcast,150,2013-11-30 18:53:00
11:53 AM,50.0,44.1,80,30.31,10.0,SE,8.1,-,N/A,,Overcast,140,2013-11-30 19:53:00
12:53 PM,51.1,44.1,77,30.29,10.0,SE,11.5,-,N/A,,Overcast,140,2013-11-30 20:53:00
1:53 PM,52.0,43.0,71,30.27,10.0,SSE,9.2,-,N/A,,Overcast,160,2013-11-30 21:53:00
2:53 PM,52.0,44.1,74,30.26,10.0,SSE,8.1,-,N/A,,Overcast,160,2013-11-30 22:53:00
3:53 PM,52.0,44.1,74,30.25,10.0,SSE,6.9,-,N/A,,Overcast,160,2013-11-30 23:53:00
4:53 PM,52.0,44.1,74,30.24,10.0,South,6.9,-,N/A,,Overcast,170,2013-12-01 00:53:00
5:53 PM,53.1,44.1,71,30.22,10.0,South,9.2,-,N/A,,Overcast,180,2013-12-01 01:53:00
6:53 PM,52.0,44.1,74,30.21,10.0,Variable,6.9,17.3,N/A,,Overcast,0,2013-12-01 02:53:00
7:53 PM,53.1,45.0,74,30.19,10.0,South,9.2,18.4,N/A,,Overcast,190,2013-12-01 03:53:00
8:53 PM,53.1,45.0,74,30.17,10.0,South,12.7,18.4,N/A,,Overcast,180,2013-12-01 04:53:00
9:53 PM,52.0,46.0,80,30.17,9.0,South,10.4,-,0.03,Rain,Light Rain,180,2013-12-01 05:53:00
10:53 PM,51.1,46.9,86,30.14,10.0,SSE,10.4,-,0.01,,Overcast,150,2013-12-01 06:53:00
11:53 PM,51.1,46.9,86,30.10,10.0,SSE,8.1,-,N/A,,Overcast,150,2013-12-01 07:53:00